Theta_e
305 306 306 306 306 306 304 305 305 305 305 305 306 306 307 307 308 305 302 306 303 298 303 307 306 300 301 299 295 299 299 301 298 292 292 292 290 293 292 295 293 290 291 289 290 286 285 298 297 290 292 293 296 296
305 305 305 305 305 304 304 304 304 304 304 305 305 306 306 307 307 308 298 304 305 301 303 306 308 309 308 306 301 301 301 300 302 296 295 293 293 294 291 290 296 289 292 290 288 288 296 298 292 295 295 293 294 294
305 305 305 305 304 303 304 303 304 305 306 306 305 306 307 307 307 306 301 299 299 301 303 303 303 309 310 310 310 302 303 306 303 306 297 296 292 294 287 288 295 292 293 289 288 294 293 299 297 297 296 296 297 298
304 304 305 304 305 305 305 304 305 305 306 306 306 307 307 307 307 307 300 299 299 301 298 305 315 312 315 312 311 309 307 307 306 303 298 294 292 297 290 288 286 288 289 287 286 289 291 294 292 293 295 296 296 297
303 304 304 304 305 305 305 305 305 306 306 306 306 307 307 307 307 305 304 301 302 302 298 300 309 313 312 313 308 307 303 301 301 298 294 291 294 295 295 288 289 290 288 284 282 289 288 289 293 294 292 292 292 292
302 303 303 305 305 305 305 305 305 306 307 307 307 308 308 307 307 303 303 305 304 305 300 297 308 309 311 314 310 306 302 298 300 297 293 294 297 292 284 279 293 291 292 292 288 292 292 293 294 294 293 293 293 293
302 302 303 305 304 304 304 305 306 306 307 307 307 308 308 308 302 304 305 308 307 307 301 301 299 305 311 312 310 307 301 297 298 294 294 292 292 293 285 278 290 293 294 293 293 293 291 292 290 292 293 293 294 295
302 303 303 304 304 303 305 305 306 307 307 307 307 308 308 309 306 305 307 308 306 305 306 301 300 301 307 305 304 307 298 300 296 292 292 293 294 291 283 290 292 294 294 293 293 295 292 292 291 290 290 291 290 290
302 302 303 304 305 305 305 306 306 306 306 307 308 309 306 303 305 306 312 311 307 305 299 300 296 294 306 304 306 306 298 293 296 291 290 293 289 283 291 290 291 292 292 292 293 292 290 289 289 288 288 288 287 287
302 302 303 303 304 305 305 306 306 306 306 308 306 305 304 304 311 312 306 304 304 305 303 299 302 297 301 300 298 298 297 293 288 291 294 288 290 295 294 292 292 293 294 293 290 287 288 288 288 288 288 287 286 286
302 302 303 303 304 305 305 306 306 306 305 298 294 299 300 306 305 304 303 302 302 298 300 301 302 299 303 295 295 298 293 292 285 289 289 284 289 293 294 292 293 294 294 293 292 291 291 290 289 289 289 289 288 287
302 302 303 303 304 305 305 306 306 302 300 299 298 301 298 302 304 303 300 302 302 298 303 301 304 301 301 301 296 296 293 293 287 293 286 283 292 294 293 293 292 294 295 293 293 291 291 291 291 290 290 290 289 290
302 303 303 304 304 305 306 305 305 306 304 304 299 298 301 303 293 299 296 297 298 304 303 305 300 301 300 300 296 294 292 289 294 288 287 290 292 293 292 292 292 296 294 294 293 293 292 291 291 291 290 291 291 289
302 303 303 303 305 306 305 305 306 304 298 298 301 289 298 298 301 299 298 297 301 301 300 299 299 298 297 294 293 291 290 291 285 281 285 290 289 290 291 292 293 293 294 293 293 292 290 290 288 289 289 289 288 287
303 303 303 304 305 304 304 305 305 302 299 299 301 289 299 303 306 304 303 302 303 303 302 299 297 297 292 292 290 288 286 284 284 284 289 289 289 290 290 291 291 293 293 292 293 292 291 289 287 287 288 288 288 288
303 302 303 304 303 304 304 303 304 303 303 301 300 297 304 304 304 305 302 302 302 301 301 300 296 290 290 289 289 287 284 281 286 289 289 289 289 289 289 291 293 292 292 292 292 290 289 288 287 287 288 288 288 288
302 296 303 303 303 303 303 299 304 302 301 303 300 302 304 303 303 304 302 302 304 300 295 294 291 289 291 289 288 289 285 289 290 290 290 290 290 288 290 293 292 292 291 292 289 289 288 289 288 287 286 287 288 288
296 299 302 303 303 301 302 302 303 302 300 301 298 300 306 304 305 306 304 303 301 298 294 292 293 290 287 287 285 290 291 291 291 291 291 290 289 290 292 290 290 291 291 289 289 288 288 287 286 285 285 287 287 286
299 300 302 303 301 298 297 303 304 298 301 301 303 304 304 304 307 309 309 306 305 304 301 298 292 289 289 292 292 292 293 292 291 290 290 290 290 290 291 291 290 289 288 287 287 286 286 287 287 284 284 284 283 283
301 302 302 304 303 299 297 299 307 301 298 300 303 301 303 305 308 309 308 306 302 300 297 296 294 294 293 295 295 296 295 294 293 290 290 289 290 290 289 289 289 289 288 288 288 288 287 287 286 286 285 284 283 283
300 302 305 303 301 301 299 297 299 301 302 299 302 302 304 303 303 303 303 308 303 300 296 298 297 297 298 297 296 295 296 295 293 292 292 289 291 291 290 290 291 290 288 288 287 287 287 286 286 286 286 285 284 284
299 305 301 305 302 301 299 299 298 300 299 300 300 301 302 303 300 302 304 303 302 304 301 298 298 297 296 296 294 293 293 292 293 295 294 293 290 290 291 292 291 291 292 290 289 289 288 288 287 287 286 285 285 285
302 302 299 301 298 295 293 301 297 299 297 300 303 301 299 299 301 306 300 301 302 305 304 302 301 299 297 296 295 294 293 292 292 295 294 294 294 293 292 292 294 292 288 288 289 288 288 287 288 287 287 285 285 285
303 298 296 296 297 292 300 297 300 300 299 299 299 297 298 300 304 302 300 300 304 305 302 301 300 297 295 294 293 293 294 294 291 291 292 292 291 291 293 291 291 290 290 290 289 289 288 289 289 289 288 288 286 284
291 290 291 287 296 296 295 295 296 297 295 298 297 298 299 302 296 297 299 302 305 303 302 302 300 299 296 295 295 295 295 294 291 291 292 291 290 289 289 289 290 291 291 290 289 290 288 288 288 289 288 288 286 285
286 292 288 294 294 293 294 292 293 293 293 294 297 301 302 298 296 295 300 304 307 307 306 305 300 298 298 299 298 295 295 295 293 291 292 293 292 290 288 288 288 288 291 292 291 291 289 289 289 288 288 287 285 287
285 291 296 301 299 297 294 294 295 292 292 292 295 296 297 294 290 293 302 307 308 309 310 310 308 303 302 301 300 298 296 296 297 296 294 295 294 293 293 290 289 290 293 293 293 293 292 291 290 289 289 288 288 288
293 295 292 294 294 295 293 293 292 292 295 299 297 293 294 293 292 300 304 309 310 310 310 310 311 308 301 301 301 297 295 296 296 295 294 294 293 293 294 293 293 288 295 295 293 294 294 293 292 291 289 288 287 288
294 297 295 292 294 294 295 296 295 297 299 298 295 295 297 300 304 301 305 308 309 308 307 307 307 310 304 297 298 298 296 295 295 293 290 288 288 290 291 293 292 292 291 289 285 288 292 292 291 290 290 289 288 288
296 296 293 293 291 290 294 297 294 298 298 298 299 298 297 298 302 307 306 306 305 306 306 307 308 307 304 301 295 293 294 295 295 294 291 289 290 293 292 294 292 290 290 290 288 288 285 288 287 289 289 287 286 286
296 294 292 292 291 294 296 298 299 299 299 299 301 299 298 299 304 305 304 305 304 305 305 306 306 308 307 302 298 296 293 294 296 296 296 295 295 294 294 293 293 291 291 291 291 289 288 287 287 288 289 287 287 287
294 293 292 291 292 296 298 296 296 295 297 299 297 298 299 299 299 300 302 303 301 299 297 301 303 304 308 309 305 302 294 300 300 298 297 296 296 296 295 294 294 295 293 292 290 288 288 288 288 289 288 288 288 287
295 295 295 294 293 293 295 296 295 294 298 296 296 295 294 295 294 297 303 304 302 301 302 303 305 307 308 308 307 304 298 303 298 290 289 291 292 293 294 293 295 296 294 292 290 289 289 289 290 290 289 289 288 288
Wind_Speed
21 21 23 24 23 24 25 24 25 24 24 23 22 20 19 17 16 8 6 3 1 3 7 4 5 4 6 4 2 6 5 7 5 6 3 1 3 2 6 3 3 4 3 2 2 1 2 2 3 3 5 4 5 6
21 22 22 23 24 25 25 26 25 25 24 22 21 20 19 17 14 10 3 3 4 3 7 4 7 11 6 4 4 5 5 2 2 4 2 2 4 4 3 3 5 4 2 2 4 2 3 4 3 3 3 6 6 5
24 23 23 23 26 26 24 26 25 24 23 23 23 21 20 17 14 6 3 3 2 2 6 4 4 3 3 3 4 4 3 1 3 3 3 2 7 2 3 2 2 4 5 4 4 1 6 1 2 5 3 9 11 10
24 24 23 25 25 24 25 27 24 25 24 23 23 20 19 17 12 7 3 2 1 3 1 5 7 5 6 7 2 3 3 4 3 4 4 4 4 3 3 2 4 3 4 3 3 4 8 0 6 7 11 12 14 13
23 24 24 26 26 26 25 25 26 26 25 25 23 22 20 16 11 5 4 4 3 2 1 5 7 4 5 9 6 6 4 3 3 4 5 2 2 5 3 4 4 2 3 3 5 1 4 6 7 13 13 14 14 16
23 25 26 25 26 27 26 27 27 27 26 27 25 24 19 13 4 1 1 2 5 3 1 4 4 5 6 7 8 6 3 3 4 5 2 2 1 5 4 3 2 4 8 5 3 7 4 7 12 12 16 18 18 17
23 24 25 26 28 29 28 28 28 28 27 27 25 21 15 8 3 2 3 3 5 3 0 4 5 4 3 4 4 4 4 2 5 3 3 3 2 5 4 3 2 5 8 7 6 9 6 12 11 16 16 18 20 19
23 23 25 26 28 28 27 27 29 29 29 28 24 17 9 5 5 3 3 5 2 1 2 1 4 4 1 3 1 2 0 2 5 4 3 4 2 4 3 4 4 4 5 9 11 9 7 12 12 15 16 16 16 17
24 24 25 26 26 26 27 27 28 29 31 30 22 9 2 1 1 2 2 2 1 3 2 2 3 4 1 2 2 4 3 3 1 3 2 5 3 2 4 6 5 5 5 6 8 9 9 9 11 13 15 14 14 14
23 25 26 27 27 26 26 26 26 29 31 25 2 3 2 2 13 2 2 1 1 2 1 3 1 3 3 1 1 1 2 2 3 3 3 5 3 7 8 6 5 5 7 6 5 9 7 9 10 13 14 13 14 14
25 26 27 27 27 26 25 24 23 26 12 6 5 2 5 14 2 0 1 2 1 2 2 4 5 3 2 3 2 2 2 1 3 5 5 2 1 4 7 5 4 7 8 6 5 5 6 7 9 9 10 12 12 14
26 27 28 28 26 25 22 21 19 6 2 4 5 5 4 3 1 1 2 2 2 4 3 2 4 4 2 3 3 2 2 3 2 2 5 2 3 11 8 8 6 8 6 6 5 5 6 7 8 9 10 11 10 11
27 26 27 26 25 19 18 20 18 13 7 1 2 3 2 2 1 4 5 3 2 3 3 3 2 2 4 3 1 2 3 1 3 4 2 2 6 6 6 7 6 8 5 5 4 4 6 7 8 8 8 8 6 9
26 28 27 26 19 15 20 20 17 7 1 2 3 6 4 4 5 4 5 4 5 3 1 2 1 2 1 2 1 3 2 4 1 3 3 3 6 6 5 4 7 6 5 5 5 7 6 4 4 6 6 6 6 6
28 30 30 13 20 26 24 22 18 3 2 4 1 4 5 5 1 3 4 3 2 2 2 2 3 3 1 3 2 3 1 2 2 5 4 5 6 7 6 5 5 6 5 4 4 4 2 1 2 4 5 5 5 5
30 27 3 24 28 28 28 16 1 3 3 3 5 3 4 3 4 3 1 3 2 1 2 3 2 3 1 2 2 1 4 4 4 3 4 6 7 6 6 5 7 6 4 4 2 3 3 3 3 3 4 4 4 4
23 5 15 29 29 29 18 3 2 4 4 5 5 4 4 4 5 3 2 3 1 4 0 2 2 3 1 2 1 2 5 5 6 5 4 6 8 7 6 8 7 6 5 4 3 3 4 5 5 4 5 4 4 4
5 14 29 30 19 8 3 3 3 3 5 5 3 5 3 2 1 2 1 1 4 2 2 3 4 2 3 4 3 3 3 4 4 6 6 6 7 7 7 7 6 6 5 4 4 4 5 5 6 4 2 2 2 2
19 19 29 27 6 3 3 4 3 4 6 4 4 3 2 3 3 1 1 1 2 3 4 2 2 2 3 3 3 4 7 5 6 4 4 6 7 7 7 6 6 5 6 5 5 4 4 5 4 2 3 5 4 2
27 18 22 16 10 3 4 5 3 3 4 4 3 3 2 2 2 2 1 1 1 3 2 2 3 3 4 3 4 7 7 8 10 8 5 4 5 7 7 6 5 6 5 5 5 5 3 4 1 4 4 3 5 3
12 6 7 4 2 4 4 4 5 4 4 3 4 3 4 2 2 3 2 1 4 2 2 2 3 3 4 4 5 5 9 11 9 7 9 6 5 6 6 5 6 4 4 4 4 4 5 4 3 4 5 3 4 4
5 9 3 3 3 3 4 5 4 5 3 4 4 3 3 2 2 3 4 3 4 6 5 5 5 5 5 5 4 5 7 7 8 6 6 9 6 5 5 5 6 7 6 5 5 3 3 4 4 4 5 4 5 4
9 3 3 3 3 3 8 2 3 4 3 5 5 5 4 2 2 2 1 3 3 3 4 7 6 6 8 6 7 5 5 7 6 8 7 7 6 5 4 6 7 7 5 4 5 4 2 4 6 6 5 5 4 3
4 3 3 3 4 5 4 3 2 3 3 3 3 4 4 3 2 3 2 3 2 0 3 7 9 7 4 5 4 4 5 5 5 4 5 8 6 5 6 5 5 4 5 5 5 3 3 4 7 6 6 6 5 5
3 5 3 5 4 4 3 3 3 3 4 3 3 4 3 3 3 2 1 4 2 4 6 8 8 7 6 4 4 4 6 6 6 6 5 5 5 3 3 3 5 6 5 5 4 5 5 5 5 5 6 7 7 7
4 4 6 4 3 2 2 3 4 3 5 3 3 4 3 3 4 4 7 7 3 4 4 3 1 4 4 5 7 6 6 6 6 5 5 6 6 7 6 6 4 3 4 5 5 6 6 6 6 7 5 6 7 7
4 5 6 4 4 3 3 3 3 3 3 3 3 5 4 4 4 3 5 4 4 3 4 4 4 4 6 7 5 4 5 7 10 8 5 7 7 7 9 8 7 5 5 6 6 8 9 8 6 6 6 3 6 7
4 4 3 5 3 2 2 3 3 1 4 4 6 3 3 3 4 4 5 2 3 1 2 5 6 5 3 7 7 6 5 5 5 6 7 6 4 3 6 4 5 8 6 7 7 6 7 8 7 7 7 6 4 4
4 3 2 4 4 2 2 3 4 3 1 1 2 3 3 2 2 3 3 4 2 2 6 6 9 6 6 5 5 6 7 8 10 8 7 5 3 2 2 8 6 6 6 6 6 7 8 6 8 8 7 6 5 4
2 1 1 3 2 3 3 1 3 4 3 4 4 3 3 3 4 8 8 5 3 4 2 4 4 6 4 3 4 4 3 5 6 7 8 6 6 6 5 8 7 6 5 6 6 4 6 5 4 4 5 3 3 3
3 2 1 2 4 5 6 6 5 4 3 5 5 5 6 4 4 8 10 8 7 4 4 4 4 4 5 5 5 6 4 4 7 9 7 6 10 9 7 7 7 6 6 6 6 5 5 3 4 4 5 6 6 7
3 4 3 3 4 5 4 2 3 3 4 6 7 6 7 4 5 4 8 8 9 9 7 7 6 8 7 5 7 2 7 6 6 7 11 8 11 10 8 7 7 8 7 7 6 6 6 7 5 5 6 7 9 9
3 3 3 4 3 3 3 3 3 5 5 4 6 7 7 6 6 4 4 4 8 9 10 11 11 11 12 13 10 7 7 8 8 8 9 11 13 12 8 5 6 9 11 8 6 6 8 7 6 8 9 8 8 10
Wind_Direction
336 336 337 338 339 338 341 340 340 339 339 339 339 338 340 343 342 353 281 274 50 295 283 303 335 2 349 58 77 280 27 358 22 55 81 338 67 44 86 1 40 79 41 51 43 326 246 246 342 45 239 261 252 272
336 336 336 336 338 340 339 338 338 338 338 339 339 337 335 336 339 346 292 339 330 215 251 276 251 246 217 172 144 2 158 275 203 82 37 88 39 32 115 81 18 57 34 139 121 228 259 253 198 249 213 239 266 245
336 337 335 336 339 339 337 338 337 335 330 328 330 327 327 327 324 311 275 289 325 281 300 2 341 319 123 138 154 102 318 232 4 174 141 119 80 89 74 61 120 11 17 43 60 85 326 278 295 286 275 247 270 264
336 337 336 337 333 331 332 335 330 327 325 325 328 323 322 321 315 291 258 253 302 266 338 287 346 45 11 350 72 138 179 25 96 62 76 71 92 44 56 135 99 194 47 356 319 350 333 184 18 355 343 333 327 319
337 338 337 336 331 331 330 328 326 324 324 329 327 325 322 319 312 284 231 227 219 62 289 284 312 346 345 17 2 43 52 87 81 44 56 66 71 84 85 78 26 61 177 134 229 353 242 272 341 333 327 318 308 304
340 339 337 333 332 333 331 329 325 324 324 328 328 323 319 314 299 230 32 210 202 204 3 339 283 316 337 354 351 337 9 74 86 109 125 53 107 97 92 108 62 62 74 58 20 304 259 294 323 331 322 317 312 299
339 338 336 333 335 335 334 328 324 323 324 326 324 319 318 292 163 168 172 186 133 163 305 326 341 308 359 27 330 326 11 55 99 109 73 111 27 78 87 107 74 89 99 72 27 344 326 350 330 328 323 320 314 293
338 337 334 331 336 336 330 326 323 323 325 324 322 315 315 144 274 329 293 241 177 109 70 173 278 339 109 31 5 253 150 15 21 128 52 97 25 71 84 112 99 73 82 43 14 23 338 327 336 336 341 338 333 336
337 335 331 332 331 330 328 325 323 325 325 320 318 306 93 77 341 270 243 264 190 138 194 165 190 256 129 177 188 299 97 63 276 88 111 87 5 57 132 135 95 59 54 12 10 15 5 355 348 351 348 347 345 344
334 333 332 333 332 330 327 324 326 328 323 312 14 46 327 260 325 20 52 85 23 229 246 230 228 258 137 39 216 39 25 126 76 256 88 75 91 85 91 111 118 89 81 41 9 7 354 5 6 2 3 356 4 357
332 330 331 332 329 327 324 322 330 334 351 19 7 309 306 304 23 43 291 154 284 292 222 233 189 224 288 107 204 182 181 138 84 264 109 73 125 112 131 115 106 96 91 82 64 43 15 7 4 7 13 12 7 5
329 327 328 329 328 322 318 321 331 345 351 300 293 282 296 321 32 265 231 317 217 233 258 188 241 184 258 117 91 300 132 59 169 180 78 94 101 133 133 117 96 104 93 92 73 52 37 25 22 14 14 24 14 16
325 323 323 326 323 319 319 326 327 307 294 237 228 263 131 256 352 211 183 232 220 177 230 211 276 164 360 53 67 72 82 194 89 60 109 173 143 128 118 121 106 105 101 90 84 70 55 36 26 26 21 14 11 28
320 320 322 320 313 322 330 326 325 332 40 232 240 310 184 238 233 187 179 194 240 135 226 125 155 166 196 70 126 74 249 102 84 81 206 181 150 150 130 122 106 107 105 93 56 93 73 45 4 3 9 6 7 20
322 319 318 308 339 336 329 325 319 172 243 260 191 245 237 247 304 171 157 87 313 149 71 33 26 96 347 96 53 78 32 52 140 188 200 145 146 128 117 110 101 115 117 102 93 118 187 208 1 349 346 350 4 9
324 317 261 346 332 326 321 316 215 184 254 246 245 277 275 16 342 341 109 160 212 140 53 65 97 60 340 140 96 138 128 206 215 179 137 131 132 127 130 125 107 103 109 114 128 198 227 253 257 268 300 307 312 332
324 249 320 323 323 317 307 258 225 215 247 260 251 244 238 241 214 232 185 207 183 79 60 96 85 192 86 68 94 148 188 193 150 126 127 141 141 151 151 129 128 124 131 157 204 234 261 276 288 283 271 271 261 287
260 305 308 310 325 308 272 218 243 247 256 250 247 266 273 221 228 245 240 217 85 120 91 187 141 101 153 172 245 199 103 91 107 134 143 143 142 144 133 135 133 138 164 185 230 253 272 297 314 320 65 193 102 120
298 302 296 293 285 314 305 271 193 254 246 242 258 257 240 255 265 205 115 280 137 147 105 62 113 159 210 204 153 134 147 149 151 152 147 152 147 142 143 151 147 160 187 207 232 250 265 277 255 199 92 86 107 106
306 298 284 289 168 248 275 265 245 235 271 253 265 290 197 207 240 80 28 172 98 88 52 118 178 207 166 198 154 156 153 143 138 136 151 151 163 149 163 158 178 184 204 240 248 254 296 329 132 126 112 99 93 92
307 256 313 112 204 225 269 295 284 238 299 290 283 339 258 216 179 169 201 315 63 63 252 193 163 140 112 112 106 112 141 148 164 160 166 166 186 169 180 186 184 185 192 224 241 256 204 202 175 137 134 134 108 100
257 280 304 261 273 252 237 228 237 278 279 253 307 209 251 255 251 220 151 105 177 202 183 147 163 134 114 124 135 119 140 142 161 137 138 127 153 176 195 191 172 202 210 215 229 239 213 183 162 140 122 125 122 115
291 268 218 253 268 265 261 247 223 266 299 295 341 341 311 296 270 10 80 208 218 204 153 140 140 123 125 136 116 116 130 123 133 155 161 172 179 188 174 169 189 199 183 196 170 164 155 123 162 146 139 116 110 98
255 255 255 262 204 258 272 273 260 260 272 289 322 293 275 304 323 88 239 272 235 344 99 127 124 115 79 104 129 160 168 150 142 135 153 150 160 198 201 185 178 174 161 165 154 152 98 93 99 112 146 133 133 127
277 265 163 270 268 261 261 276 284 349 333 304 271 278 312 5 27 284 306 319 312 149 163 148 145 154 153 171 176 192 181 150 157 152 203 155 142 96 98 122 138 159 153 133 144 137 143 121 108 109 113 141 146 149
253 241 183 251 255 218 287 308 333 343 313 294 298 316 24 37 14 11 357 341 349 52 356 28 151 168 187 186 171 181 197 169 144 155 196 167 163 155 153 150 153 237 202 158 143 147 152 136 134 133 130 120 134 151
264 262 219 243 308 359 337 314 321 283 269 271 322 353 2 30 44 306 272 305 323 19 357 330 284 228 202 187 180 168 153 149 170 186 172 167 170 167 157 161 178 205 159 152 149 153 157 159 159 158 154 145 136 158
258 277 26 330 347 272 261 275 246 293 43 343 325 328 18 149 210 219 236 165 179 188 251 313 353 341 188 157 151 130 118 130 117 98 75 45 39 117 129 109 108 124 119 116 111 110 137 153 158 149 145 154 167 171
251 282 8 312 316 314 292 26 2 354 22 317 304 292 341 244 257 247 256 197 229 82 60 356 333 347 2 19 100 126 136 138 139 144 128 139 108 7 91 122 123 111 111 102 77 108 121 146 141 149 159 153 161 144
191 83 22 337 333 288 289 297 259 249 227 207 208 267 295 280 56 24 23 27 12 322 296 177 214 204 194 199 181 157 192 158 149 152 156 165 185 163 155 138 135 135 128 118 120 111 88 96 90 104 123 133 141 132
126 86 48 222 242 246 244 259 264 263 245 260 260 240 237 188 117 49 28 15 2 360 27 7 342 337 264 238 172 152 207 235 168 161 156 140 149 162 168 159 150 141 141 144 152 154 144 139 161 149 137 154 162 152
155 199 224 266 286 282 306 294 268 272 332 26 21 3 3 0 72 30 0 354 4 1 342 324 319 308 299 284 233 216 159 152 164 167 166 144 161 166 163 159 149 147 151 156 162 161 167 168 173 161 178 165 137 149
220 204 242 256 301 309 301 344 335 350 55 49 27 24 7 16 51 357 319 347 346 330 327 324 307 291 260 230 184 156 169 163 152 142 146 145 153 154 157 157 150 156 164 168 177 176 184 188 193 171 182 173 154 158